EW9824 Weather Reports


Display with metric or nautical units.
time (UTC)temp
F
wind
direction
speed
MPH
gust
MPH
rain 1hr
in
rain 24hr
in
rain mn
in
humidity
%
barometer
mb
20260903053029 49 15 2.0 4.0 0.00 0.35 0.35 93 1012.6
20260903051603 50 36 3.0 8.0 0.00 0.35 0.35 94 1012.5
20260903050030 50 25 3.0 6.0 0.00 0.35 0.35 94 1012.6
20260903044530 50 24 4.0 8.0 0.00 0.35 0.35 95 1012.5
20260903043029 50 101 2.0 6.0 0.00 0.35 0.35 96 1012.3
20260903041531 51 120 2.0 7.0 0.01 0.35 0.35 96 1012.2
20260903040029 51 135 1.0 6.0 0.03 0.35 0.35 95 1011.9
20260903034530 51 145 2.0 4.0 0.05 0.35 0.35 95 1011.9
20260903033031 52 103 1.0 4.0 0.08 0.35 0.34 95 1011.8
20260903031531 53 93 2.0 5.0 0.09 0.34 0.32 95 1011.9
20260903030031 54 156 2.0 5.0 0.10 0.32 0.30 96 1011.9
20260903024606 54 119 3.0 7.0 0.10 0.30 0.27 96 1011.7
20260903023106 55 48 1.0 5.0 0.07 0.27 0.25 96 1011.7
20260903021528 56 331 1.0 5.0 0.06 0.25 0.22 96 1011.6
20260903020030 56 300 4.0 9.0 0.05 0.22 0.20 96 1011.1
20260903014531 56 305 3.0 6.0 0.04 0.20 0.20 95 1010.6
20260903013027 56 263 0.0 4.0 0.05 0.20 0.19 95 1010.7
20260903011531 56 239 2.0 3.0 0.06 0.19 0.17 95 1010.8
20260903010031 56 256 2.0 5.0 0.06 0.17 0.16 95 1010.8
20260903004531 57 276 3.0 7.0 0.06 0.16 0.15 94 1010.9
20260903003032 57 317 3.0 7.0 0.05 0.15 0.13 94 1010.8
20260903001606 57 299 2.0 6.0 0.03 0.13 0.11 93 1010.9
20260903000112 57 275 0.0 4.0 0.01 0.11 0.10 94 1010.9
20260902234540 57 296 2.0 5.0 0.01 0.10 0.10 93 1010.8
20260902231644 57 348 3.0 7.0 0.02 0.10 0.10 93 1011.1
20260902230034 56 319 2.0 5.0 0.03 0.10 0.09 93 1011.2
20260902224528 57 7 3.0 5.0 0.03 0.09 0.08 93 1011.0
20260902223032 56 324 2.0 6.0 0.03 0.08 0.08 92 1010.9
20260902221532 57 314 4.0 9.0 0.04 0.08 0.07 91 1010.9
20260902220029 56 269 2.0 6.0 0.04 0.07 0.06 90 1010.8
20260902211532 57 356 1.0 4.0 0.04 0.04 0.03 86 1010.6
20260902204534 57 50 1.0 4.0 0.01 0.01 0.00 81 1010.8
20260902201530 59 199 0.0 4.0 0.00 0.00 0.00 76 1011.1
20260902200029 59 210 2.0 6.0 0.00 0.00 0.00 74 1010.9
20260902194531 59 259 2.0 6.0 0.00 0.00 0.00 72 1010.9
20260902193032 59 240 2.0 7.0 0.00 0.00 0.00 70 1010.9
20260902191532 60 158 1.0 5.0 0.00 0.00 0.00 69 1010.8
20260902190030 60 122 3.0 9.0 0.00 0.00 0.00 73 1010.9
20260902184530 61 344 2.0 5.0 0.00 0.00 0.00 72 1011.1
20260902183107 61 303 1.0 5.0 0.00 0.00 0.00 72 1011.1
20260902181609 61 303 2.0 5.0 0.00 0.00 0.00 72 1010.9
20260902180106 60 285 1.0 4.0 0.00 0.00 0.00 73 1010.9
20260902174531 60 298 2.0 7.0 0.00 0.00 0.00 73 1010.9
20260902173032 61 303 4.0 9.0 0.00 0.00 0.00 72 1010.9
20260902171529 61 291 4.0 7.0 0.00 0.00 0.00 73 1011.0
20260902170029 60 334 4.0 7.0 0.00 0.00 0.00 74 1011.2
20260902164529 59 307 4.0 7.0 0.00 0.00 0.00 74 1011.4
20260902163106 59 334 2.0 6.0 0.00 0.00 0.00 73 1011.7
20260902161532 58 35 1.0 5.0 0.00 0.00 0.00 74 1011.9
20260902154529 55 135 0.0 2.0 0.00 0.00 0.00 81 1012.1
20260902153029 54 141 1.0 5.0 0.00 0.00 0.00 84 1012.3
20260902151530 52 208 1.0 3.0 0.00 0.00 0.00 87 1012.1
20260902150029 51 187 1.0 3.0 0.00 0.00 0.00 88 1012.2
20260902143032 49 198 2.0 4.0 0.00 0.00 0.00 89 1012.3
20260902130032 49 61 2.0 4.0 0.00 0.00 0.00 82 1012.6
20260902124532 51 165 2.0 6.0 0.00 0.00 0.00 80 1012.8
20260902123106 52 3 3.0 7.0 0.00 0.00 0.00 79 1012.7
20260902121531 52 29 3.0 7.0 0.00 0.00 0.00 77 1012.9
20260902120029 54 33 1.0 5.0 0.00 0.00 0.00 74 1012.9
20260902113030 55 334 5.0 11.0 0.00 0.00 0.00 73 1012.9
20260902111531 55 332 5.0 10.0 0.00 0.00 0.00 73 1012.9
20260902110030 55 340 5.0 11.0 0.00 0.00 0.00 74 1013.0
20260902104527 55 344 4.0 10.0 0.00 0.00 0.00 74 1013.1
20260902103029 56 5 3.0 7.0 0.00 0.00 0.00 74 1013.3
20260902101531 56 356 5.0 13.0 0.00 0.00 0.00 73 1013.4
20260902100033 57 330 6.0 12.0 0.00 0.00 0.00 71 1013.4
20260902094531 57 302 6.0 18.0 0.00 0.00 0.00 70 1013.5
20260902093031 57 303 7.0 14.0 0.00 0.00 0.00 70 1013.7
20260902091531 57 308 7.0 14.0 0.00 0.00 0.00 70 1013.7
20260902090031 57 297 6.0 14.0 0.00 0.00 0.00 71 1013.7
20260902084606 57 305 7.0 17.0 0.00 0.00 0.00 71 1013.7
20260902081531 57 325 6.0 14.0 0.00 0.00 0.00 74 1013.8
20260902080029 57 339 5.0 12.0 0.00 0.00 0.00 74 1013.9
20260902073105 57 329 6.0 14.0 0.00 0.00 0.00 74 1014.0
20260902071530 57 326 7.0 13.0 0.00 0.00 0.00 73 1014.1
20260902070029 58 326 7.0 16.0 0.00 0.00 0.00 73 1014.4
20260902064531 58 326 7.0 13.0 0.00 0.00 0.00 73 1014.5
20260902063029 58 331 6.0 13.0 0.00 0.00 0.00 72 1014.7
20260902061531 59 323 6.0 13.0 0.00 0.00 0.00 71 1014.7
20260902060031 59 335 4.0 9.0 0.00 0.00 0.00 70 1014.9
20260902054530 59 292 3.0 11.0 0.00 0.00 0.00 68 1014.9